Scarborough,

4:16 PM AST on June 28, 2017 (GMT -0400)
Scarborough

Weather History for TTCP - September, 2013

Change the Weather History Date:

Sunday, September 15, 2013

  Actual Average Record
Temperature  
Mean Temperature 82 °F -  
Max Temperature 86 °F 85 °F 102 °F (2005)
Min Temperature 78 °F 76 °F 75 °F (2011)
Cooling Degree Days 17    
Growing Degree Days 32 (Base 50)    
Moisture  
Dew Point 75 °F    
Average Humidity 81    
Maximum Humidity 89    
Minimum Humidity 74    
Precipitation  
Precipitation 0.00 in - - ()
Sea Level Pressure  
Sea Level Pressure 29.93 in    
Wind  
Wind Speed 11 mph ()    
Max Wind Speed 21 mph    
Max Gust Speed 21 mph    
Visibility 5.8 miles    
Events Rain , Thunderstorm    
Averages and records for this station are not official NWS values.
T = Trace of Precipitation, MM = Missing Value Source: Averaged Metar Reports

Daily Weather History Graph

Daily Weather History Graph

Search for Another Location

Airport or City:

Trip Planner

Search our weather history database for the weather conditions in past years. The results will help you decide how hot, cold, wet, or windy it might be!

Date:

Astronomy

Sep. 15, 2013 Rise Set
Actual Time 5:52 AM AST 6:03 PM AST
Civil Twilight 5:31 AM AST 6:25 PM AST
Nautical Twilight 5:07 AM AST 6:49 PM AST
Astronomical Twilight 4:42 AM AST 7:14 PM AST
Moon 2:56 PM AST (9/15) 2:01 AM AST (9/15)
Length of Visible Light 12h 53m
Length of Day
12h 11m
Waxing Gibbous, 82% of the Moon is Illuminated
Sep 15
Waxing Gibbous
Sep 19
Full
Sep 26
Last Quarter
Oct 4
New
Oct 11
First Quarter

Hourly Weather History & Observations

Time (AST) Temp. Heat Index Dew Point Humidity Pressure Visibility Wind Dir Wind Speed Gust Speed Precip Events Conditions
12:00 AM 84.2 °F 94.1 °F 77.0 °F 79% 29.95 in 6.2 mi ESE 17.3 mph - N/A   Mostly Cloudy
1:00 AM 84.2 °F 94.1 °F 77.0 °F 79% 29.92 in 6.2 mi ESE 20.7 mph - N/A   Mostly Cloudy
3:00 AM 82.4 °F 89.5 °F 75.2 °F 79% 29.89 in 6.2 mi ESE 13.8 mph - N/A   Mostly Cloudy
4:00 AM 78.8 °F - 71.6 °F 78% 29.89 in 6.2 mi SE 11.5 mph - N/A   Mostly Cloudy
5:00 AM 78.8 °F - 71.6 °F 78% 29.92 in 6.2 mi SE 11.5 mph - N/A   Mostly Cloudy
6:00 AM 82.4 °F 90.9 °F 77.0 °F 84% 29.92 in 6.2 mi ESE 11.5 mph - N/A   Mostly Cloudy
7:00 AM 82.4 °F 89.5 °F 75.2 °F 79% 29.92 in 6.2 mi East 11.5 mph - N/A   Mostly Cloudy
8:00 AM 82.4 °F 89.5 °F 75.2 °F 79% 29.98 in 6.2 mi ESE 16.1 mph - N/A   Mostly Cloudy
9:00 AM 84.2 °F 92.3 °F 75.2 °F 74% 29.98 in 6.2 mi East 13.8 mph - N/A   Mostly Cloudy
9:30 AM 80.6 °F 86.2 °F 75.2 °F 84% 30.01 in 2.5 mi ESE 13.8 mph - N/A Rain , Thunderstorm Light Thunderstorms and Rain
10:00 AM 78.8 °F - 73.4 °F 83% 30.01 in 5.6 mi East 6.9 mph - N/A   Mostly Cloudy
11:00 AM 82.4 °F 89.5 °F 75.2 °F 79% 29.98 in 5.6 mi East 11.5 mph - N/A   Mostly Cloudy
12:00 PM 86.0 °F 96.9 °F 77.0 °F 74% 29.95 in 3.1 mi East 13.8 mph - N/A Rain Light Rain Showers
1:00 PM 86.0 °F 96.9 °F 77.0 °F 74% 29.92 in 6.2 mi ESE 17.3 mph - N/A   Mostly Cloudy
2:00 PM 80.6 °F 87.1 °F 77.0 °F 89% 29.92 in 6.2 mi East 11.5 mph - N/A   Mostly Cloudy
3:00 PM 82.4 °F 89.5 °F 75.2 °F 79% 29.89 in 6.2 mi East 12.7 mph - N/A   Mostly Cloudy
4:00 PM 82.4 °F 89.5 °F 75.2 °F 79% 29.89 in 6.2 mi East 16.1 mph - N/A   Mostly Cloudy
5:00 PM 82.4 °F 89.5 °F 75.2 °F 79% 29.89 in 6.2 mi East 11.5 mph - N/A   Mostly Cloudy
6:00 PM 82.4 °F 89.5 °F 75.2 °F 79% 29.89 in 6.2 mi East 13.8 mph - N/A   Mostly Cloudy
7:00 PM 82.4 °F 88.2 °F 73.4 °F 74% 29.89 in 6.2 mi East 5.8 mph - N/A   Mostly Cloudy
8:00 PM 82.4 °F 90.9 °F 77.0 °F 84% 29.92 in 6.2 mi ENE 3.5 mph - N/A   Mostly Cloudy
9:00 PM 80.6 °F 86.2 °F 75.2 °F 84% 29.92 in 6.2 mi Calm Calm - N/A   Mostly Cloudy
10:00 PM 78.8 °F - 75.2 °F 89% 29.95 in 6.2 mi ENE 8.1 mph - N/A Rain Rain Showers
11:00 PM 78.8 °F - 75.2 °F 89% 29.92 in 6.2 mi Calm Calm - N/A   Mostly Cloudy
11:34 PM 78.8 °F - 75.2 °F 89% 29.92 in 3.7 mi ENE 5.8 mph 20.7 mph N/A Rain , Thunderstorm Thunderstorms and Rain